AXB2983 VOTV-VOBL

Flight info

Callsign AXB2983
Flight time N/A
Altitude 33000
Route UGABA DCT RUBOX
Aircraft A21N/M-SDE3FGHIRWY/LB1

Departure

Time 2026-05-07 08:10
Airport Thiruvananthapuram International Airport (VOTV)

Arrival

Time N/A
Airport Kempegowda International Airport Bengaluru (VOBL)
Time Latitude Longitude Altitude Speed Heading
2026-05-07 07:44 8.48634 76.92162 44 ft 0 kts 44°
2026-05-07 07:55 8.48631 76.92159 44 ft 2 kts 46°
2026-05-07 07:56 8.48622 76.92148 44 ft 2 kts 47°
2026-05-07 07:56 8.48611 76.92137 43 ft 2 kts 45°
2026-05-07 07:56 8.48601 76.92126 43 ft 2 kts 56°
2026-05-07 07:56 8.48594 76.92111 42 ft 2 kts 74°
2026-05-07 07:57 8.48591 76.92097 42 ft 2 kts 90°
2026-05-07 07:57 8.48593 76.92081 42 ft 2 kts 107°
2026-05-07 07:57 8.48600 76.92067 42 ft 2 kts 123°
2026-05-07 07:57 8.48606 76.92059 42 ft 0 kts 135°
2026-05-07 07:58 8.48611 76.92054 42 ft 0 kts 137°
2026-05-07 08:00 8.48610 76.92054 41 ft 0 kts 137°
2026-05-07 08:00 8.48608 76.92056 41 ft 0 kts 137°
2026-05-07 08:01 8.48605 76.92059 41 ft 1 kts 137°
2026-05-07 08:01 8.48592 76.92071 41 ft 3 kts 144°
2026-05-07 08:01 8.48558 76.92073 41 ft 6 kts 199°
2026-05-07 08:01 8.48509 76.92031 39 ft 10 kts 224°
2026-05-07 08:02 8.48431 76.92004 37 ft 13 kts 158°
2026-05-07 08:02 8.48360 76.92077 37 ft 14 kts 133°
2026-05-07 08:02 8.48283 76.92152 37 ft 16 kts 136°
2026-05-07 08:02 8.48198 76.92235 37 ft 16 kts 136°
2026-05-07 08:03 8.48109 76.92321 37 ft 17 kts 136°
2026-05-07 08:03 8.48018 76.92409 38 ft 17 kts 137°
2026-05-07 08:03 8.47929 76.92497 40 ft 17 kts 136°
2026-05-07 08:03 8.47842 76.92582 42 ft 16 kts 136°
2026-05-07 08:04 8.47764 76.92655 43 ft 13 kts 136°
2026-05-07 08:04 8.47684 76.92640 41 ft 14 kts 226°
2026-05-07 08:04 8.47617 76.92582 40 ft 13 kts 194°
2026-05-07 08:04 8.47546 76.92628 41 ft 11 kts 131°
2026-05-07 08:05 8.47495 76.92685 41 ft 10 kts 132°
2026-05-07 08:05 8.47448 76.92737 42 ft 9 kts 134°
2026-05-07 08:05 8.47401 76.92783 42 ft 9 kts 136°
2026-05-07 08:05 8.47355 76.92828 42 ft 9 kts 136°
2026-05-07 08:06 8.47307 76.92874 42 ft 9 kts 136°
2026-05-07 08:06 8.47267 76.92931 42 ft 10 kts 107°
2026-05-07 08:06 8.47251 76.93004 42 ft 10 kts 108°
2026-05-07 08:06 8.47206 76.93067 42 ft 11 kts 144°
2026-05-07 08:07 8.47162 76.93035 41 ft 10 kts 275°
2026-05-07 08:07 8.47204 76.92975 42 ft 11 kts 317°
2026-05-07 08:07 8.47261 76.92920 41 ft 11 kts 316°
2026-05-07 08:07 8.47318 76.92863 42 ft 11 kts 315°
2026-05-07 08:08 8.47333 76.92847 42 ft 0 kts 316°
2026-05-07 08:09 8.47336 76.92844 42 ft 4 kts 316°
2026-05-07 08:09 8.47411 76.92773 42 ft 23 kts 316°
2026-05-07 08:10 8.47700 76.92492 38 ft 97 kts 316°
2026-05-07 08:10 8.48383 76.91827 36 ft 166 kts 315°
2026-05-07 08:10 8.49327 76.90919 422 ft 194 kts 314°
2026-05-07 08:10 8.50338 76.89946 1131 ft 203 kts 314°
2026-05-07 08:11 8.51375 76.88940 2014 ft 208 kts 315°
2026-05-07 08:11 8.52676 76.88226 2558 ft 225 kts 349°
2026-05-07 08:11 8.54321 76.88506 2911 ft 254 kts 28°
2026-05-07 08:11 8.55768 76.89696 3454 ft 273 kts 39°
2026-05-07 08:12 8.57482 76.90618 4184 ft 279 kts 10°
2026-05-07 08:12 8.59442 76.90765 4988 ft 285 kts 360°
2026-05-07 08:12 8.61505 76.90840 5857 ft 289 kts
2026-05-07 08:12 8.63522 76.90965 6907 ft 285 kts
2026-05-07 08:13 8.65532 76.91193 7909 ft 283 kts
2026-05-07 08:13 8.67537 76.91401 8771 ft 286 kts
2026-05-07 08:13 8.69624 76.91605 9409 ft 294 kts
2026-05-07 08:13 8.71768 76.91841 9958 ft 300 kts
2026-05-07 08:14 8.73998 76.92092 10511 ft 315 kts
2026-05-07 08:14 8.76318 76.92349 10907 ft 334 kts
2026-05-07 08:14 8.78687 76.92609 11258 ft 352 kts
2026-05-07 08:14 8.81244 76.92888 11580 ft 370 kts
2026-05-07 08:15 8.84054 76.93192 11911 ft 388 kts
2026-05-07 08:15 8.87018 76.93513 12491 ft 397 kts
2026-05-07 08:15 8.89758 76.93810 13222 ft 400 kts
2026-05-07 08:15 8.92530 76.94109 13942 ft 402 kts
2026-05-07 08:16 8.95294 76.94408 14625 ft 405 kts
2026-05-07 08:16 8.98101 76.94710 15303 ft 408 kts
2026-05-07 08:16 9.00958 76.95016 15971 ft 411 kts
2026-05-07 08:16 9.03801 76.95322 16617 ft 414 kts
2026-05-07 08:17 9.06693 76.95633 17259 ft 417 kts
2026-05-07 08:17 9.09561 76.95941 17882 ft 420 kts
2026-05-07 08:17 9.12486 76.96255 18558 ft 421 kts
2026-05-07 08:17 9.15418 76.96571 19317 ft 420 kts
2026-05-07 08:18 9.18302 76.96881 19958 ft 422 kts
2026-05-07 08:18 9.21251 76.97198 20562 ft 424 kts
2026-05-07 08:18 9.24231 76.97518 21156 ft 427 kts
2026-05-07 08:18 9.27228 76.97840 21731 ft 429 kts
2026-05-07 08:19 9.30216 76.98161 22279 ft 431 kts
2026-05-07 08:19 9.33281 76.98492 22818 ft 434 kts
2026-05-07 08:19 9.36425 76.98830 23339 ft 437 kts
2026-05-07 08:19 9.39473 76.99159 23818 ft 439 kts
2026-05-07 08:20 9.42546 76.99490 24278 ft 442 kts
2026-05-07 08:20 9.45597 76.99818 24715 ft 444 kts
2026-05-07 08:20 9.48726 77.00156 25145 ft 446 kts
2026-05-07 08:20 9.51796 77.00487 25668 ft 446 kts
2026-05-07 08:21 9.54859 77.00816 26267 ft 443 kts
2026-05-07 08:21 9.57947 77.01149 26842 ft 441 kts
2026-05-07 08:21 9.60946 77.01472 27357 ft 440 kts
2026-05-07 08:21 9.63980 77.01800 27853 ft 439 kts
2026-05-07 08:22 9.67088 77.02135 28345 ft 438 kts
2026-05-07 08:22 9.70098 77.02460 28815 ft 437 kts
2026-05-07 08:22 9.73113 77.02786 29275 ft 436 kts
2026-05-07 08:22 9.76103 77.03109 29719 ft 436 kts
2026-05-07 08:23 9.79108 77.03435 30155 ft 435 kts
2026-05-07 08:23 9.82062 77.03754 30567 ft 435 kts
2026-05-07 08:23 9.85083 77.04081 30980 ft 434 kts
2026-05-07 08:23 9.88039 77.04401 31369 ft 434 kts
2026-05-07 08:24 9.91001 77.04723 31748 ft 433 kts
2026-05-07 08:24 9.93978 77.05045 32119 ft 433 kts
2026-05-07 08:24 9.96918 77.05363 32470 ft 433 kts
2026-05-07 08:24 9.99939 77.05690 32748 ft 434 kts
2026-05-07 08:25 10.02916 77.06013 32768 ft 434 kts
2026-05-07 08:25 10.08923 77.06666 32771 ft 433 kts